Tracking 19709 objects as of 17-Jun-2019
HD Live streaming from Space Station
objects crossing your sky now

TITAN 3C TRANSTAGE DEB

Track TITAN 3C TRANSTAGE DEB now!


NORAD ID: 26525
Int'l Code: 1965-108AL
Perigee: 549.7 km
Apogee: 29,075.9 km
Inclination: 26.2 °
Period: 511.4 minutes
Semi major axis: 21183 km
RCS: 0.1939 m2 (medium)
Launch date: December 21, 1965
Source: United States (US)
Launch site: AIR FORCE EASTERN TEST RANGE (AFETR)

Note: This is SATELLITE DEBRIS
aabbcc
Your satellite tracking list
Your tracking list is empty




NASA's NSSDC Master Catalog

Two Line Element Set (TLE):
1 26525U 65108AL  19163.27058635  .00000145  00000-0  66146-3 0  9992
2 26525  26.2211 231.0723 6733025 259.5355  22.2441  2.81577603198781
Source of the keplerian elements: AFSPC